Wind_Speed
8 8 8 8 8 7 7 6 5 4 3 2 1 1 1 1 1 2 3 4 5 6 6 6 5 5 5 5 5 4 3 4 5 5 4 5 5 5 5 5 4 4 4
9 9 8 8 7 7 7 6 5 5 4 2 1 1 1 2 2 2 3 4 5 5 6 6 5 5 5 5 5 4 3 4 5 5 4 4 4 4 5 5 4 3 3
9 8 8 7 7 6 6 6 5 4 3 3 2 1 0 1 2 3 3 4 4 5 6 5 5 5 5 5 4 5 4 4 4 5 4 3 4 4 5 5 4 3 3
9 8 8 7 7 7 6 6 6 5 3 3 1 1 0 1 2 2 2 3 3 5 6 5 5 5 5 5 5 5 5 4 4 4 3 3 3 4 5 5 5 4 3
9 9 8 7 7 6 6 6 6 5 4 3 2 1 1 2 2 2 2 3 3 4 5 5 5 5 5 5 5 5 5 5 4 3 3 3 3 4 5 5 5 4 4
10 9 8 7 7 7 7 6 5 4 4 4 3 2 2 2 2 2 2 2 3 3 4 5 5 4 5 5 4 5 5 4 4 4 3 3 4 5 5 5 5 5 4
10 10 9 8 8 7 7 7 6 5 4 4 3 3 2 2 2 2 2 2 3 3 4 5 5 5 5 5 5 5 5 4 4 4 4 4 4 5 5 6 5 5 4
11 10 9 8 8 7 7 7 7 6 6 5 5 3 2 2 2 2 2 2 2 3 4 5 6 6 5 6 6 6 5 5 5 5 5 5 4 5 5 5 5 4 4
11 10 10 9 8 7 7 6 6 6 6 5 5 4 2 2 2 2 2 1 1 1 3 4 5 5 6 6 6 6 6 6 5 6 6 5 5 5 5 5 5 4 4
10 10 10 9 8 7 7 7 7 6 6 6 4 3 2 1 1 2 2 1 1 1 2 3 4 5 6 6 6 7 7 7 6 6 6 6 6 6 6 6 5 5 5
10 10 11 10 8 8 8 7 7 7 6 6 4 3 2 1 1 2 1 1 1 2 2 2 3 4 5 5 6 7 8 8 7 7 7 7 6 6 7 6 6 5 5
11 11 10 10 9 8 8 7 7 7 6 6 5 4 3 1 1 1 1 1 1 2 2 3 3 3 4 5 6 6 7 8 8 8 7 7 7 7 7 7 7 6 6
10 10 10 10 10 8 8 8 8 8 7 6 6 5 4 2 2 2 2 1 2 2 3 3 3 3 4 5 5 6 7 7 8 8 8 8 8 7 7 8 8 8 8
10 10 10 10 10 10 9 9 9 8 7 7 6 5 4 4 3 3 3 2 3 3 3 3 4 4 4 5 5 6 7 7 8 8 8 9 8 8 8 8 9 9 9
11 11 11 11 10 10 9 9 9 8 7 6 6 6 5 5 4 4 4 4 4 5 5 5 5 5 6 6 6 7 7 7 7 7 8 9 9 9 9 9 9 9 10
11 11 11 11 10 10 9 9 9 9 8 6 6 7 6 6 5 5 5 5 5 5 6 7 6 6 7 7 7 7 8 8 8 8 9 9 9 10 10 10 10 10 11
11 11 11 11 10 10 10 9 9 9 9 9 8 8 7 6 6 5 5 6 6 7 7 7 7 7 8 8 8 8 9 9 9 9 9 9 9 10 11 11 12 12 12
12 11 11 11 10 10 10 10 9 9 9 9 9 9 8 7 7 6 7 7 7 8 8 8 8 8 9 9 9 9 10 10 11 10 10 10 11 11 12 12 12 12 12
12 12 12 12 11 11 10 10 10 10 10 10 10 9 9 9 8 8 8 8 8 8 8 9 9 9 9 10 10 10 11 11 11 12 11 11 11 12 12 13 13 13 13
12 12 12 13 12 12 11 10 10 10 10 10 10 10 10 9 9 9 9 8 8 8 9 9 9 9 9 10 11 11 11 11 12 12 12 12 12 12 12 13 14 14 14
13 13 13 13 13 12 10 10 10 10 11 11 11 11 11 10 10 10 9 9 9 9 9 9 10 10 10 11 11 11 11 11 11 12 12 12 13 13 13 13 14 15 15
13 13 13 14 13 12 11 10 10 10 11 11 11 12 12 11 11 10 10 9 9 10 10 11 12 11 12 12 12 13 12 12 12 12 12 13 13 13 14 15 15 16 16
12 13 14 14 14 13 11 11 10 11 11 12 12 12 12 12 11 11 11 10 10 10 11 11 12 13 13 13 14 14 13 13 13 12 13 14 14 14 14 15 16 16 16
12 13 14 14 14 13 12 11 11 11 11 12 13 13 12 12 12 12 12 11 10 11 11 11 12 13 13 14 14 14 14 14 14 14 14 15 15 15 15 15 16 18 18
13 14 14 14 14 13 12 12 12 12 13 13 13 12 12 12 12 12 12 12 11 12 11 11 12 13 14 15 15 15 15 15 16 16 16 17 17 17 17 17 17 18 18
13 14 14 14 14 13 13 13 13 13 13 14 13 12 12 13 13 13 13 13 12 12 11 12 12 13 14 14 15 15 15 16 17 17 18 18 18 19 19 20 20 20 20
Wind_Direction
55 62 60 59 56 55 56 56 53 59 62 81 127 137 199 223 215 209 204 205 209 207 204 195 188 189 191 189 185 185 184 180 184 180 173 172 181 182 172 163 162 161 164
51 53 51 51 51 53 54 56 59 60 57 62 76 124 211 233 236 233 225 223 219 214 204 202 199 201 203 199 195 193 191 183 181 179 176 179 188 187 179 169 165 158 160
46 45 45 48 52 54 54 54 54 54 53 50 54 67 236 244 243 255 249 231 222 214 205 200 201 202 204 201 197 196 190 184 187 185 185 195 191 189 184 179 175 165 157
47 46 44 45 50 53 51 47 48 44 45 43 40 29 338 291 258 259 247 238 226 210 206 197 191 194 202 203 195 194 195 197 190 191 201 203 196 189 187 186 182 181 180
45 46 44 44 48 51 50 49 46 43 42 35 25 355 302 292 280 272 257 238 220 200 196 197 196 197 196 196 199 199 202 205 200 203 203 193 191 183 188 195 192 196 195
45 46 43 46 47 46 48 44 37 30 26 19 13 356 330 296 280 270 254 238 222 205 201 208 209 218 214 206 202 199 199 201 197 197 191 190 195 189 189 191 190 198 201
44 46 41 39 42 43 45 39 32 24 15 3 352 337 321 317 288 268 260 254 234 219 218 222 223 225 218 210 207 206 208 203 200 200 198 189 191 186 190 194 194 193 197
44 43 39 37 38 40 42 38 29 20 10 360 350 337 320 316 322 298 264 255 238 230 225 222 221 216 212 210 211 208 211 209 205 202 195 198 198 198 201 205 202 200 203
41 38 34 36 35 34 38 35 27 22 12 3 358 348 331 306 305 311 282 277 281 234 209 210 213 212 214 214 214 215 218 216 215 208 205 209 207 208 208 212 212 211 214
39 38 34 34 38 34 30 27 26 21 13 7 4 359 345 308 292 299 290 261 251 240 209 217 218 221 218 224 221 223 224 218 219 210 213 218 219 218 215 213 211 219 227
37 35 34 32 33 30 23 21 18 12 11 15 8 6 1 328 302 324 291 271 243 242 239 224 224 231 230 234 231 230 223 219 218 217 219 222 224 224 221 217 219 223 230
34 32 31 33 29 25 23 20 15 11 14 13 5 357 357 349 314 326 321 280 253 255 258 254 251 242 241 241 240 235 227 224 221 223 224 229 229 229 227 229 231 230 233
33 35 33 29 27 24 20 19 13 8 7 5 6 2 2 354 330 296 301 284 267 259 251 254 254 253 252 243 244 239 233 230 230 229 231 235 236 236 235 237 237 237 235
31 27 28 26 24 25 24 20 16 10 6 2 2 360 358 347 324 312 296 284 275 269 259 259 260 263 253 242 243 238 234 236 237 235 239 240 241 242 241 242 242 239 237
25 21 20 19 17 19 18 17 14 9 0 357 357 349 341 333 321 302 285 279 275 271 267 261 259 258 247 247 245 245 240 237 233 236 240 245 245 246 247 247 245 243 243
20 17 14 13 13 11 10 8 6 4 1 355 352 343 333 326 318 306 296 290 285 276 266 262 264 262 249 251 249 247 242 239 242 245 247 248 249 248 251 247 247 248 246
16 12 9 9 7 5 4 2 1 358 360 0 354 348 339 327 316 304 295 291 287 277 268 263 259 255 254 252 251 252 246 243 248 252 252 253 253 253 253 252 248 247 246
16 10 5 4 1 359 359 357 353 351 351 350 350 348 343 335 320 309 294 287 283 279 274 266 262 255 253 254 253 253 251 250 252 251 254 257 258 258 256 255 255 254 253
13 9 5 0 355 352 351 351 350 349 347 345 344 345 340 335 328 318 306 290 279 274 273 271 266 261 259 257 256 257 255 256 255 255 255 258 260 260 257 255 255 257 257
7 6 2 359 353 348 346 347 347 347 346 344 340 337 333 330 327 323 316 303 289 277 273 270 268 270 267 261 259 261 261 263 261 257 258 259 262 263 260 256 256 257 258
1 2 0 357 353 350 346 346 344 343 343 341 337 333 330 327 324 322 315 306 295 287 280 275 275 275 273 267 265 264 265 266 263 263 261 262 263 263 263 263 262 259 258
356 356 355 353 351 349 345 340 342 342 341 337 336 336 334 327 326 323 316 307 298 291 285 278 276 274 272 270 268 266 265 267 268 271 268 267 267 266 264 265 265 261 259
353 351 351 352 351 350 345 340 342 342 338 335 336 337 334 332 331 328 322 311 302 295 288 281 278 275 274 273 269 266 265 266 269 270 270 270 270 269 265 264 267 266 263
350 349 349 349 350 350 348 347 344 340 335 335 335 334 333 333 332 329 323 315 308 304 295 285 281 279 276 275 271 268 265 265 267 267 269 270 271 270 269 269 268 269 269
345 345 346 346 344 344 343 342 341 340 338 336 336 335 336 335 332 328 323 319 314 308 301 290 285 282 279 277 274 270 269 267 268 268 270 271 271 271 271 272 272 270 269
339 340 342 343 343 342 340 340 338 336 334 336 340 340 338 336 334 330 324 316 314 310 305 298 290 288 281 277 275 272 271 270 270 269 270 269 269 270 272 273 272 271 270
Height
5887 5886 5886 5886 5886 5885 5884 5884 5884 5884 5884 5884 5884 5884 5884 5884 5885 5885 5884 5885 5885 5885 5885 5886 5886 5887 5887 5888 5888 5888 5888 5888 5889 5889 5889 5890 5890 5890 5890 5890 5891 5891 5890
5888 5887 5887 5886 5886 5886 5886 5885 5885 5884 5884 5884 5885 5885 5885 5885 5885 5885 5884 5884 5885 5885 5885 5886 5886 5886 5887 5887 5888 5888 5888 5888 5888 5889 5889 5889 5890 5890 5890 5890 5890 5890 5890
5889 5889 5888 5887 5887 5887 5886 5886 5886 5885 5885 5885 5885 5885 5885 5885 5884 5884 5884 5884 5884 5885 5885 5885 5886 5886 5887 5887 5887 5887 5888 5888 5888 5889 5889 5889 5889 5889 5889 5890 5890 5890 5890
5890 5889 5889 5888 5888 5887 5887 5886 5886 5886 5885 5885 5885 5885 5885 5884 5884 5884 5884 5883 5883 5884 5884 5885 5885 5886 5886 5886 5887 5887 5888 5888 5888 5888 5888 5889 5889 5889 5889 5889 5890 5890 5890
5891 5890 5889 5889 5888 5888 5887 5887 5886 5886 5886 5885 5885 5885 5884 5884 5884 5883 5883 5883 5883 5883 5884 5885 5885 5885 5885 5886 5886 5887 5887 5887 5887 5888 5888 5888 5889 5889 5889 5889 5889 5889 5889
5892 5891 5890 5890 5889 5889 5888 5887 5887 5886 5886 5886 5885 5885 5884 5884 5883 5883 5883 5883 5883 5883 5883 5884 5884 5885 5885 5885 5886 5886 5886 5887 5887 5887 5888 5888 5888 5888 5888 5889 5889 5889 5889
5893 5892 5891 5890 5890 5889 5888 5888 5887 5887 5886 5885 5885 5884 5884 5883 5883 5883 5883 5883 5883 5883 5883 5883 5884 5884 5884 5885 5885 5885 5886 5886 5887 5887 5888 5888 5888 5888 5888 5888 5888 5888 5888
5894 5893 5892 5891 5891 5890 5889 5888 5888 5887 5886 5885 5884 5884 5883 5883 5883 5882 5882 5882 5882 5882 5882 5882 5883 5883 5883 5884 5884 5885 5885 5886 5886 5887 5887 5887 5887 5887 5887 5887 5887 5887 5887
5895 5894 5893 5892 5891 5890 5889 5889 5888 5887 5886 5885 5884 5883 5882 5882 5882 5882 5882 5882 5881 5881 5881 5882 5882 5882 5883 5883 5883 5884 5884 5885 5886 5886 5886 5886 5886 5887 5886 5886 5886 5886 5887
5897 5895 5894 5893 5892 5891 5890 5889 5888 5886 5885 5884 5883 5882 5882 5881 5881 5881 5881 5881 5881 5881 5881 5881 5881 5881 5882 5882 5882 5883 5883 5884 5884 5885 5885 5885 5885 5885 5885 5885 5885 5886 5886
5898 5896 5895 5894 5892 5891 5890 5889 5888 5886 5885 5884 5882 5882 5881 5881 5881 5881 5881 5881 5880 5880 5880 5880 5880 5880 5881 5881 5881 5881 5881 5882 5883 5883 5884 5884 5884 5884 5884 5884 5884 5884 5885
5898 5897 5895 5894 5892 5891 5890 5889 5887 5886 5885 5884 5883 5882 5881 5881 5881 5880 5880 5880 5880 5879 5879 5879 5879 5880 5880 5880 5880 5880 5880 5881 5881 5882 5882 5882 5882 5882 5882 5882 5883 5883 5883
5898 5897 5896 5894 5893 5891 5890 5888 5887 5886 5884 5883 5882 5882 5881 5880 5880 5880 5880 5879 5879 5879 5879 5879 5879 5879 5878 5878 5878 5878 5878 5879 5880 5880 5880 5881 5881 5881 5880 5881 5881 5881 5882
5900 5898 5896 5895 5893 5892 5890 5888 5886 5885 5884 5883 5882 5881 5880 5880 5879 5879 5879 5878 5878 5878 5877 5878 5878 5877 5877 5877 5877 5877 5877 5878 5878 5878 5878 5879 5879 5879 5879 5879 5879 5879 5879
5900 5899 5897 5895 5894 5892 5890 5888 5886 5884 5883 5882 5882 5881 5880 5879 5878 5878 5877 5877 5876 5876 5876 5876 5876 5876 5876 5876 5876 5875 5875 5876 5876 5876 5876 5876 5876 5876 5876 5877 5877 5877 5877
5900 5898 5896 5895 5893 5891 5890 5888 5886 5884 5883 5882 5881 5880 5879 5878 5877 5876 5876 5875 5875 5874 5874 5874 5874 5874 5874 5874 5874 5874 5873 5874 5874 5874 5874 5874 5874 5874 5874 5874 5874 5874 5874
5900 5898 5896 5895 5893 5891 5890 5888 5886 5884 5882 5881 5880 5879 5878 5876 5875 5874 5874 5873 5873 5873 5872 5872 5872 5872 5872 5872 5872 5872 5871 5872 5872 5872 5872 5871 5871 5871 5871 5871 5872 5871 5872
5900 5898 5896 5894 5893 5891 5889 5887 5886 5884 5882 5880 5879 5878 5876 5875 5874 5873 5872 5871 5871 5870 5870 5870 5870 5869 5870 5870 5870 5869 5869 5869 5869 5869 5869 5869 5869 5868 5868 5869 5869 5869 5869
5900 5898 5896 5894 5892 5890 5888 5887 5885 5883 5882 5880 5878 5877 5875 5873 5872 5871 5870 5869 5868 5868 5868 5867 5867 5867 5867 5867 5867 5867 5867 5866 5866 5867 5867 5866 5866 5866 5865 5865 5865 5865 5865
5899 5898 5895 5893 5891 5889 5887 5885 5884 5882 5881 5879 5877 5875 5874 5872 5871 5869 5868 5867 5866 5865 5865 5865 5864 5864 5864 5864 5864 5864 5864 5864 5864 5863 5863 5863 5863 5862 5862 5862 5862 5862 5862
5899 5897 5895 5893 5890 5888 5886 5884 5882 5881 5879 5877 5875 5874 5872 5870 5869 5867 5866 5865 5864 5863 5862 5862 5861 5861 5861 5861 5861 5861 5861 5861 5861 5860 5860 5860 5859 5859 5858 5858 5858 5858 5858
5898 5896 5894 5891 5889 5886 5884 5882 5881 5879 5878 5876 5874 5872 5870 5868 5866 5865 5863 5862 5861 5860 5859 5859 5858 5858 5858 5858 5858 5857 5857 5858 5858 5857 5856 5856 5856 5855 5854 5854 5854 5854 5854
5898 5896 5893 5890 5888 5885 5882 5880 5879 5878 5876 5874 5872 5870 5868 5866 5864 5863 5861 5860 5858 5857 5856 5855 5855 5855 5854 5854 5854 5854 5854 5854 5854 5854 5853 5853 5852 5851 5851 5851 5850 5850 5849
5897 5895 5892 5890 5887 5884 5882 5880 5878 5876 5875 5873 5871 5869 5866 5864 5862 5860 5859 5857 5855 5854 5853 5852 5852 5851 5851 5850 5850 5850 5849 5850 5850 5850 5849 5849 5848 5847 5847 5847 5846 5846 5845
5896 5894 5891 5889 5886 5884 5881 5879 5877 5875 5873 5871 5869 5866 5864 5862 5860 5858 5856 5854 5853 5851 5850 5849 5848 5847 5847 5846 5846 5845 5845 5845 5845 5845 5845 5844 5844 5843 5842 5842 5841 5840 5840
5894 5892 5890 5887 5885 5882 5880 5878 5876 5874 5871 5869 5867 5864 5862 5860 5858 5856 5854 5852 5850 5848 5847 5845 5844 5843 5842 5842 5841 5841 5841 5840 5840 5840 5840 5839 5839 5838 5837 5836 5835 5835 5834